Location: Glencliff
(36.1226°N, 86.7183°W)
Time: 12:59:30
(UTC+00:00)

Cosmos 990 Rocket - Pass Details

Date: 25 August 2019
Orbit: 747 x 769 km, 74.0° (Epoch: 22 October)

Event Time Altitude Azimuth Distance (km) Brightness Sun altitude
Rises 01:39:20 0° 187° (S) 3,213 7.0 -14.8°
Reaches altitude 10° 01:41:43 10° 184° (S) 2,289 6.2 -15.2°
Maximum altitude 01:46:50 62° 104° (ESE) 855 3.9 -16.1°
Drops below altitude 10° 01:51:57 10° 25° (NNE) 2,289 6.5 -17.1°
Sets 01:54:20 0° 22° (NNE) 3,215 7.3 -17.5°
